Natchez, MS

7:02 PM CST on November 20, 2019 (GMT -0600)
Hardy-Anders-Adams County

Weather History for KHEZ - September, 2019

Change the Weather History Date:

Wednesday, September 18, 2019

  Actual Average Record
Temperature  
Mean Temperature 82 °F -  
Max Temperature 93 °F 87 °F 97 °F (1972)
Min Temperature 72 °F 66 °F 49 °F (1934)
Cooling Degree Days 18    
Growing Degree Days 32 (Base 50)    
Moisture  
Dew Point 72 °F    
Average Humidity 79    
Maximum Humidity 97    
Minimum Humidity 45    
Precipitation  
Precipitation 0.05 in - - ()
Sea Level Pressure  
Sea Level Pressure 29.98 in    
Wind  
Wind Speed 4 mph (South)    
Max Wind Speed 13 mph    
Max Gust Speed 22 mph    
Visibility 10 miles    
Events Rain , Thunderstorm    
Averages and records for this station are not official NWS values.
T = Trace of Precipitation, MM = Missing Value Source: NWS Daily Summary

Daily Weather History Graph

Daily Weather History Graph

Search for Another Location

Airport or City:

Astronomy

Sep. 18, 2019 Rise Set
Actual Time 6:50 AM CDT 7:07 PM CDT
Civil Twilight 6:26 AM CDT 7:31 PM CDT
Nautical Twilight 5:58 AM CDT 8:00 PM CDT
Astronomical Twilight 5:29 AM CDT 8:28 PM CDT
Moon 9:56 PM CDT (9/18) 10:40 AM CDT (9/18)
Length of Visible Light 13h 05m
Length of Day
12h 16m
Waning Gibbous, 82% of the Moon is Illuminated
Sep 18
Waning Gibbous
Sep 21
Last Quarter
Sep 28
New
Oct 5
First Quarter
Oct 13
Full

Hourly Weather History & Observations

Time (CDT) Temp. Heat Index Dew Point Humidity Pressure Visibility Wind Dir Wind Speed Gust Speed Precip Events Conditions
12:56 AM 73.9 °F - 71.1 °F 91% 29.98 in 10.0 mi Calm Calm - N/A   Clear
1:56 AM 73.9 °F - 72.0 °F 93% 29.98 in 10.0 mi Calm Calm - N/A   Clear
3:56 AM 73.0 °F - 72.0 °F 96% 29.97 in 10.0 mi SSE 4.6 mph - N/A   Clear
4:56 AM 73.0 °F - 72.0 °F 96% 29.96 in 10.0 mi Calm Calm - N/A   Clear
5:56 AM 72.0 °F - 71.1 °F 97% 29.99 in 10.0 mi Calm Calm - N/A   Partly Cloudy
6:56 AM 73.9 °F - 72.0 °F 93% 30.00 in 10.0 mi Calm Calm - N/A   Mostly Cloudy
7:56 AM 75.0 °F - 72.0 °F 90% 30.01 in 10.0 mi Calm Calm - N/A   Clear
8:56 AM 77.0 °F - 73.0 °F 88% 30.02 in 10.0 mi SSE 3.5 mph - N/A   Clear
9:56 AM 82.9 °F 89.4 °F 73.9 °F 74% 30.02 in 10.0 mi SE 5.8 mph - N/A   Clear
10:28 AM 87.8 °F 95.6 °F 73.4 °F 62% 30.03 in 10.0 mi South 6.9 mph - N/A   Partly Cloudy
10:56 AM 88.0 °F 95.6 °F 73.0 °F 61% 30.01 in 10.0 mi SSE 5.8 mph - N/A   Clear
11:41 AM 89.6 °F 98.2 °F 73.4 °F 59% 30.00 in 10.0 mi Variable 6.9 mph - N/A   Partly Cloudy
11:56 AM 91.0 °F 99.3 °F 73.0 °F 55% 29.99 in 10.0 mi SE 8.1 mph - N/A   Partly Cloudy
12:56 PM 91.9 °F 98.4 °F 71.1 °F 50% 29.98 in 10.0 mi South 12.7 mph - N/A   Scattered Clouds
1:56 PM 93.0 °F 97.9 °F 69.1 °F 45% 29.95 in 10.0 mi South 11.5 mph - N/A   Clear
2:56 PM 93.0 °F 97.9 °F 69.1 °F 45% 29.94 in 10.0 mi SSE 8.1 mph 21.9 mph N/A   Partly Cloudy
3:13 PM 93.2 °F 98.8 °F 69.8 °F 46% 29.94 in 10.0 mi South 10.4 mph - N/A   Scattered Clouds
3:56 PM 91.9 °F 96.9 °F 69.1 °F 47% 29.94 in 10.0 mi South 8.1 mph - N/A   Clear
4:56 PM 77.0 °F - 73.0 °F 88% 29.99 in 9.0 mi SW 10.4 mph 20.7 mph 0.00 in Rain Light Rain
5:09 PM 75.2 °F - 73.4 °F 94% 29.99 in 10.0 mi SSW 11.5 mph - 0.00 in Rain , Thunderstorm Light Thunderstorms and Rain
5:25 PM 75.2 °F - 71.6 °F 89% 29.99 in 10.0 mi SW 8.1 mph - 0.00 in Rain , Thunderstorm Light Rain
5:33 PM 75.2 °F - 73.4 °F 94% - 10.0 mi SSW 6.9 mph - 0.00 in Rain Light Rain
5:56 PM 75.0 °F - 73.0 °F 94% 29.99 in 10.0 mi SSW 8.1 mph - 0.01 in Rain Rain
6:56 PM 75.0 °F - 72.0 °F 90% 29.98 in 10.0 mi SW 6.9 mph - 0.04 in   Scattered Clouds
7:56 PM 75.0 °F - 72.0 °F 90% 29.96 in 10.0 mi Calm Calm - N/A   Clear
8:56 PM 73.9 °F - 72.0 °F 93% 29.99 in 10.0 mi Calm Calm - N/A   Clear
9:56 PM 73.0 °F - 72.0 °F 96% 29.98 in 10.0 mi Calm Calm - N/A   Clear
10:56 PM 73.0 °F - 71.1 °F 93% 29.98 in 10.0 mi SSE 4.6 mph - N/A   Clear
11:56 PM 73.0 °F - 71.1 °F 93% 29.97 in 10.0 mi Calm Calm - N/A   Clear